This is the latest recevied weather packets stored in our database for station/object SP8NFE-1. If no packets are shown the sender has not sent any weather packets the latest 10 day(s).
| Time | Temp. | Humidity | Pressure | Rain* | Wind** | Luminosity | Snow |
|---|---|---|---|---|---|---|---|
| 1777564830 | 11.67° C | 35% | 0 hPa | 0 mm | - | - | - |
| 1777564530 | 11.67° C | 35% | 0 hPa | 0 mm | - | - | - |
| 1777563930 | 11.67° C | 37% | 0 hPa | 0 mm | - | - | - |
| 1777563630 | 11.11° C | 37% | 0 hPa | 0 mm | - | - | - |
| 1777563330 | 11.11° C | 36% | 0 hPa | 0 mm | - | - | - |
| 1777563030 | 11.67° C | 36% | 0 hPa | 0 mm | - | - | - |
| 1777562730 | 11.67° C | 36% | 0 hPa | 0 mm | - | - | - |
| 1777562430 | 11.67° C | 36% | 0 hPa | 0 mm | - | - | - |
| 1777562130 | 11.11° C | 35% | 0 hPa | 0 mm | - | - | - |
| 1777561830 | 10.56° C | 36% | 0 hPa | 0 mm | - | - | - |
| 1777561530 | 10.56° C | 37% | 0 hPa | 0 mm | - | - | - |
| 1777561230 | 11.11° C | 36% | 0 hPa | 0 mm | - | - | - |
| 1777560930 | 11.11° C | 36% | 0 hPa | 0 mm | - | - | - |
| 1777560630 | 11.11° C | 37% | 0 hPa | 0 mm | - | - | - |
| 1777560330 | 11.11° C | 36% | 0 hPa | 0 mm | - | - | - |
| 1777560030 | 11.11° C | 36% | 0 hPa | 0 mm | - | - | - |
| 1777559730 | 11.11° C | 37% | 0 hPa | 0 mm | - | - | - |
| 1777559132 | 11.67° C | 34% | 0 hPa | 0 mm | - | - | - |
| 1777558830 | 11.67° C | 34% | 0 hPa | 0 mm | - | - | - |
| 1777558530 | 11.67° C | 35% | 0 hPa | 0 mm | - | - | - |
| 1777558230 | 11.67° C | 36% | 0 hPa | 0 mm | - | - | - |
| 1777557930 | 12.22° C | 33% | 0 hPa | 0 mm | - | - | - |
| 1777557630 | 12.22° C | 35% | 0 hPa | 0 mm | - | - | - |
| 1777557330 | 12.22° C | 33% | 0 hPa | 0 mm | - | - | - |
| 1777557031 | 11.67° C | 34% | 0 hPa | 0 mm | - | - | - |
* Rain latest hour (hover to see other rain measurements)
** Current wind speed in m/s (hover to see current wind gust speed)